IK3JLT-13 Weather Reports


Display with metric or nautical units.
time (UTC)temp
F
wind
direction
speed
MPH
gust
MPH
rain 1hr
in
rain 24hr
in
rain mn
in
humidity
%
barometer
mb
20260507205905 60 45 1.0 2.0 0.00 0.00 0.00 71 1013.8
20260507204905 61 135 2.0 2.0 0.00 0.00 0.00 71 1013.7
20260507203905 61 90 2.0 4.0 0.00 0.00 0.00 71 1013.5
20260507202905 61 90 2.0 2.0 0.00 0.00 0.00 71 1013.6
20260507201905 61 135 2.0 3.0 0.00 0.00 0.00 70 1013.6
20260507200905 62 90 2.0 3.0 0.00 0.00 0.00 70 1013.5
20260507195905 62 90 2.0 3.0 0.00 0.00 0.00 70 1013.4
20260507194907 62 45 4.0 6.0 0.00 0.00 0.00 70 1013.3
20260507193906 62 45 3.0 4.0 0.00 0.00 0.00 70 1013.2
20260507192906 62 45 4.0 4.0 0.00 0.00 0.00 70 1013.2
20260507191907 61 0 5.0 6.0 0.00 0.00 0.00 71 1013.1
20260507190906 61 90 3.0 4.0 0.00 0.00 0.00 72 1013.0
20260507185906 61 90 3.0 4.0 0.00 0.00 0.00 71 1012.9
20260507184907 62 90 3.0 4.0 0.00 0.00 0.00 71 1012.7
20260507183906 62 45 2.0 3.0 0.00 0.00 0.00 71 1012.5
20260507182905 62 45 3.0 4.0 0.00 0.00 0.00 71 1012.4
20260507181907 63 45 5.0 6.0 0.00 0.00 0.00 70 1012.4
20260507180906 63 68 5.0 7.0 0.00 0.00 0.00 70 1012.2
20260507175907 64 90 9.0 13.0 0.00 0.00 0.00 64 1011.9
20260507174907 64 90 8.0 9.0 0.00 0.00 0.00 62 1011.8
20260507173906 65 90 6.0 8.0 0.00 0.00 0.00 60 1011.8
20260507172906 65 90 9.0 11.0 0.00 0.00 0.00 61 1011.7
20260507171905 65 68 11.0 14.0 0.00 0.00 0.00 60 1011.6
20260507170905 66 90 5.0 6.0 0.00 0.00 0.00 60 1011.6
20260507165907 66 90 8.0 11.0 0.00 0.00 0.00 56 1011.6
20260507164906 67 45 10.0 14.0 0.00 0.00 0.00 53 1011.5
20260507163907 68 45 9.0 12.0 0.00 0.00 0.00 54 1011.3
20260507162906 68 45 8.0 11.0 0.00 0.00 0.00 57 1011.3
20260507161905 67 45 10.0 15.0 0.00 0.00 0.00 60 1011.3
20260507160906 68 68 12.0 17.0 0.00 0.00 0.00 55 1011.3
20260507155906 71 90 9.0 11.0 0.00 0.00 0.00 46 1011.1
20260507154907 71 135 6.0 8.0 0.00 0.00 0.00 48 1010.9
20260507153906 71 180 2.0 2.0 0.00 0.00 0.00 50 1010.9
20260507152906 70 225 4.0 4.0 0.00 0.00 0.00 52 1010.9
20260507151906 69 225 4.0 4.0 0.00 0.00 0.00 54 1010.8
20260507150907 69 180 8.0 9.0 0.00 0.01 0.00 58 1010.4
20260507145906 69 180 9.0 11.0 0.00 0.01 0.00 50 1010.4
20260507144907 69 202 11.0 12.0 0.00 0.02 0.00 50 1010.4
20260507143907 67 180 7.0 8.0 0.00 0.03 0.00 52 1010.2
20260507142906 67 248 2.0 3.0 0.00 0.04 0.00 48 1010.0
20260507141905 68 225 2.0 3.0 0.00 0.07 0.00 44 1009.9
20260507140905 68 0 6.0 8.0 0.00 0.09 0.00 43 1010.2
20260507135906 68 315 12.0 14.0 0.00 0.10 0.00 44 1010.2
20260507134907 69 315 9.0 11.0 0.00 0.10 0.00 42 1010.2
20260507133904 71 270 10.0 12.0 0.00 0.10 0.00 48 1010.2
20260507132904 72 270 6.0 8.0 0.00 0.10 0.00 48 1010.2
20260507131907 72 225 6.0 7.0 0.00 0.10 0.00 47 1010.3
20260507130907 72 270 4.0 5.0 0.00 0.10 0.00 47 1010.2
20260507125906 72 180 9.0 11.0 0.00 0.10 0.00 46 1010.3
20260507124913 73 158 4.0 6.0 0.00 0.10 0.00 41 1010.2
20260507123906 74 180 4.0 4.0 0.00 0.10 0.00 40 1010.1
20260507122906 73 180 8.0 10.0 0.00 0.10 0.00 42 1010.2
20260507121906 73 225 7.0 10.0 0.00 0.10 0.00 44 1010.1
20260507120906 73 270 8.0 10.0 0.00 0.10 0.00 44 1010.2
20260507115907 73 135 7.0 9.0 0.00 0.11 0.00 45 1010.3
20260507114908 72 158 8.0 9.0 0.00 0.11 0.00 51 1010.4
20260507113906 72 180 5.0 7.0 0.00 0.12 0.00 50 1010.4
20260507112908 72 225 5.0 8.0 0.00 0.15 0.00 51 1010.5